Vorticity
16 10 9 3 1 -2 9 1 9 -2 -7 18 14 0 -26 25 12 25 20 3 -10 -12 -11 3 17 11 19 6 9 12 14 19 14 4 8 14 18 -3 -0 14 1 23 11 11
0 14 6 1 4 1 4 11 13 13 2 -38 -4 6 -4 -5 20 9 -4 16 23 -4 5 -4 8 18 7 15 10 7 11 13 14 30 13 3 11 8 6 -3 35 9 10 -18
6 9 15 40 21 9 5 20 19 10 1 9 17 11 10 4 -16 -5 26 12 14 5 15 13 8 13 6 8 20 15 4 8 12 10 20 21 9 3 7 7 8 -10 40 39
15 24 25 -8 25 32 25 8 16 17 20 6 13 23 1 4 28 -12 11 7 21 21 -1 7 14 10 8 6 5 14 21 2 3 7 10 16 14 11 10 14 7 16 -4 22
1 12 -16 2 47 37 20 43 17 6 3 5 43 20 23 -5 -20 18 -25 18 5 -5 11 -1 13 12 11 11 13 7 15 17 12 5 4 7 16 16 14 14 11 16 27 -7
2 8 25 36 12 -6 -12 29 24 12 12 18 3 23 9 6 -19 17 19 -3 15 -14 11 14 17 12 10 9 10 11 8 13 11 15 9 4 8 8 12 15 10 15 14 11
7 27 12 -18 4 10 66 29 12 16 17 11 9 12 19 8 31 16 15 13 12 15 27 13 17 12 10 8 8 9 11 10 11 9 11 12 6 5 8 11 14 14 11 9
18 17 49 -75 24 7 -5 32 24 5 21 21 7 2 24 30 15 2 1 6 17 17 23 18 12 11 11 9 10 12 11 9 10 10 10 10 12 13 10 9 11 14 14 12
33 -40 10 26 18 33 30 85 53 21 20 24 20 20 18 14 2 -1 17 20 34 25 17 16 16 10 9 13 12 12 12 16 18 18 20 18 15 10 20 17 17 14 21 25
44 -6 36 6 23 22 53 11 50 30 27 9 9 24 20 11 13 12 -9 28 15 13 13 10 11 12 11 14 18 20 22 21 21 20 23 24 20 7 6 11 17 14 9 11
6 8 35 18 13 24 29 27 12 53 47 -3 3 8 13 11 12 3 -8 22 14 11 8 11 12 9 12 16 19 22 24 20 18 17 14 15 15 15 21 25 28 24 25 21
5 30 31 26 22 17 21 27 23 8 19 15 25 -6 54 12 17 38 14 11 8 8 10 10 11 12 12 11 5 2 -0 -2 -7 -6 -0 2 10 8 12 5 4 5 10 12
15 12 11 20 31 31 26 14 18 19 17 28 31 26 24 16 11 1 0 6 7 9 8 7 3 4 5 4 3 2 1 -0 1 -4 -2 -3 -15 16 2 21 15 9 4 0
9 12 5 9 15 21 26 33 42 31 26 23 20 14 12 10 9 16 15 10 7 6 2 6 12 17 25 16 2 6 10 13 19 33 37 30 26 22 17 12 12 14 15 14
8 8 9 13 13 10 16 16 13 12 17 18 22 23 22 17 16 16 19 17 22 22 21 18 17 14 16 14 15 17 17 18 17 16 15 14 14 13 13 14 15 15 18 20
5 5 6 8 8 8 9 8 10 7 7 11 17 16 16 21 20 17 14 10 14 15 14 11 11 14 12 11 11 11 12 14 15 15 15 15 15 13 14 14 12 11 12 12
7 4 7 5 4 4 6 6 4 7 9 8 6 5 4 7 6 7 6 9 8 9 9 8 9 9 8 9 10 9 9 9 9 9 10 10 11 10 10 11 11 11 11 12
6 7 7 6 6 6 5 4 5 7 4 4 6 5 6 7 6 6 6 6 5 6 6 6 7 7 7 7 6 7 7 6 6 5 5 5 5 5 5 5 5 5 5 5
5 6 6 7 7 7 7 7 6 6 5 6 7 7 6 7 7 7 7 7 8 8 8 6 6 6 6 6 6 5 5 5 6 6 6 5 5 5 4 4 4 3 3 3
5 5 5 5 6 6 6 6 7 7 7 7 7 6 6 6 6 6 6 6 6 6 6 6 6 6 6 6 6 6 6 6 6 6 5 5 5 5 5 5 5 5 5 5
7 5 5 5 6 6 6 7 8 8 8 8 8 8 7 7 7 6 6 6 6 6 6 6 6 5 6 4 6 5 5 5 5 5 5 5 5 5 5 6 7 7 8 9
7 8 8 7 7 7 8 8 9 9 10 10 10 9 9 9 8 8 8 6 6 7 6 6 6 6 6 6 6 7 7 6 7 7 8 9 10 11 12 12 12 13 13 13
7 8 8 9 9 9 9 10 10 10 10 10 10 10 11 11 12 11 9 11 11 11 10 9 8 9 8 9 9 9 9 10 11 11 12 13 14 15 15 16 17 17 17 18
11 13 14 15 14 14 15 14 13 13 14 13 13 13 12 12 10 12 13 12 11 12 12 12 13 13 13 13 13 13 13 12 11 11 11 10 10 10 10 10 11 11 13 15
18 17 16 16 17 17 17 15 15 15 15 16 15 15 15 16 15 14 13 12 13 14 14 14 15 16 16 16 16 15 15 15 14 13 13 12 11 11 11 11 13 14 19 17
17 16 15 14 13 14 14 14 15 15 15 15 15 15 15 15 14 14 14 15 14 14 14 14 15 16 17 17 18 18 16 15 15 15 15 16 15 14 13 13 14 18 17 15
15 15 14 14 13 13 12 12 12 13 13 13 14 14 14 15 14 14 14 14 14 14 13 12 13 13 13 14 16 17 18 18 17 16 16 16 16 16 16 16 18 17 15 15
Height
2984 2984 2983 2979 2975 2970 2975 2978 2982 2963 2965 2963 2967 2971 2976 2978 2981 2981 2983 2983 2985 2987 2988 2990 2991 2992 2994 2996 2997 2998 3001 3002 3006 3010 3014 3018 3021 3021 3026 3030 3035 3035 3038 3041
2977 2977 2978 2974 2971 2964 2966 2969 2968 2965 2958 2962 2961 2963 2967 2973 2978 2978 2978 2979 2980 2982 2983 2984 2986 2988 2990 2991 2992 2994 2995 2997 3000 3003 3008 3012 3015 3017 3018 3019 3022 3025 3028 3033
2970 2968 2971 2969 2961 2956 2952 2956 2959 2957 2953 2953 2953 2957 2957 2961 2966 2968 2973 2972 2974 2976 2977 2979 2981 2982 2984 2986 2987 2989 2990 2993 2995 2997 2999 3002 3006 3009 3010 3012 3016 3021 3022 3025
2963 2962 2960 2952 2954 2952 2948 2942 2947 2946 2943 2942 2942 2947 2953 2955 2956 2960 2966 2966 2967 2970 2971 2972 2975 2977 2978 2979 2980 2981 2983 2987 2990 2992 2992 2995 2999 3000 3003 3005 3007 3009 3012 3015
2957 2955 2948 2950 2947 2943 2939 2932 2932 2934 2934 2934 2937 2942 2940 2947 2951 2952 2957 2958 2960 2963 2965 2967 2968 2971 2973 2974 2975 2976 2978 2980 2983 2985 2988 2991 2991 2993 2995 2996 2999 3001 3006 3008
2955 2951 2945 2942 2937 2935 2931 2919 2924 2919 2920 2923 2926 2929 2929 2940 2947 2945 2947 2951 2953 2956 2958 2960 2963 2965 2967 2969 2970 2971 2973 2974 2976 2979 2981 2983 2984 2984 2985 2987 2992 2996 3001 3002
2951 2948 2941 2934 2930 2925 2923 2915 2909 2906 2907 2911 2913 2918 2928 2934 2938 2942 2943 2943 2947 2949 2951 2953 2957 2960 2961 2963 2965 2966 2967 2969 2970 2971 2973 2975 2977 2978 2980 2982 2987 2991 2994 2996
2951 2946 2935 2930 2922 2924 2911 2891 2894 2894 2896 2900 2906 2914 2918 2926 2928 2931 2932 2937 2940 2941 2944 2947 2950 2953 2955 2956 2958 2960 2961 2963 2964 2966 2967 2969 2971 2974 2976 2977 2981 2986 2987 2989
2959 2950 2943 2933 2923 2910 2891 2873 2872 2880 2886 2893 2900 2905 2909 2916 2920 2923 2928 2930 2934 2937 2940 2943 2946 2948 2950 2951 2953 2954 2956 2957 2958 2959 2961 2963 2965 2967 2971 2973 2975 2978 2980 2980
2953 2947 2936 2926 2916 2900 2880 2873 2868 2873 2881 2886 2893 2897 2901 2908 2915 2918 2925 2928 2931 2934 2938 2940 2942 2944 2946 2947 2949 2951 2952 2954 2955 2956 2958 2960 2961 2963 2966 2970 2972 2974 2975 2974
2950 2944 2932 2923 2912 2897 2883 2875 2871 2871 2879 2884 2887 2892 2898 2901 2910 2917 2924 2928 2931 2934 2936 2938 2940 2943 2945 2947 2949 2950 2952 2954 2955 2956 2957 2959 2960 2961 2963 2966 2967 2968 2969 2969
2952 2945 2938 2928 2917 2905 2890 2881 2878 2877 2879 2883 2885 2890 2897 2904 2910 2914 2920 2925 2931 2934 2936 2938 2940 2942 2944 2947 2949 2951 2953 2954 2955 2956 2957 2958 2959 2960 2961 2963 2964 2964 2965 2966
2958 2950 2941 2934 2924 2912 2902 2896 2891 2888 2888 2889 2891 2894 2898 2902 2910 2914 2920 2925 2930 2933 2936 2938 2940 2942 2944 2946 2948 2949 2951 2952 2953 2954 2955 2956 2956 2957 2957 2959 2959 2960 2962 2963
2958 2952 2944 2936 2930 2923 2916 2908 2903 2899 2898 2899 2900 2900 2902 2906 2911 2916 2922 2926 2930 2933 2935 2937 2940 2941 2943 2944 2945 2946 2947 2948 2949 2950 2951 2952 2953 2954 2954 2953 2954 2955 2956 2958
2961 2956 2951 2945 2940 2933 2928 2922 2914 2911 2911 2909 2907 2907 2910 2911 2915 2919 2922 2926 2929 2931 2933 2936 2938 2939 2941 2942 2943 2944 2945 2946 2947 2948 2948 2949 2949 2950 2950 2951 2952 2952 2953 2954
2967 2962 2956 2949 2944 2939 2935 2931 2926 2922 2918 2916 2916 2917 2919 2921 2922 2924 2926 2928 2931 2932 2934 2936 2938 2940 2942 2942 2943 2944 2945 2945 2946 2947 2947 2947 2948 2948 2948 2949 2949 2950 2951 2951
2970 2964 2961 2957 2952 2947 2942 2939 2935 2931 2930 2927 2925 2926 2928 2927 2928 2929 2931 2933 2934 2935 2937 2938 2940 2941 2942 2943 2944 2945 2946 2946 2946 2947 2947 2948 2948 2948 2948 2948 2948 2948 2948 2949
2972 2968 2964 2959 2956 2953 2950 2946 2944 2941 2939 2937 2936 2936 2936 2936 2936 2937 2938 2938 2939 2940 2940 2941 2941 2942 2943 2943 2943 2944 2944 2945 2945 2945 2946 2946 2946 2946 2946 2946 2946 2946 2945 2945
2974 2970 2967 2963 2960 2957 2954 2951 2949 2947 2945 2944 2943 2943 2942 2941 2941 2940 2940 2940 2940 2940 2940 2940 2940 2940 2940 2941 2941 2941 2941 2942 2942 2942 2942 2942 2942 2941 2941 2941 2941 2940 2940 2939
2975 2971 2968 2964 2961 2958 2956 2953 2951 2949 2947 2946 2945 2944 2943 2942 2941 2941 2940 2939 2938 2938 2938 2938 2937 2937 2937 2937 2937 2937 2937 2937 2937 2937 2936 2936 2935 2935 2935 2934 2934 2933 2932 2931
2973 2969 2966 2963 2960 2956 2954 2951 2950 2948 2946 2944 2943 2942 2940 2939 2938 2937 2936 2936 2935 2934 2933 2933 2933 2933 2932 2933 2931 2931 2931 2930 2930 2929 2928 2928 2927 2926 2925 2924 2924 2923 2922 2921
2968 2965 2962 2960 2957 2954 2951 2949 2946 2944 2942 2940 2938 2936 2935 2933 2932 2931 2930 2930 2929 2928 2927 2926 2925 2925 2925 2925 2923 2923 2923 2922 2921 2920 2919 2918 2917 2916 2915 2914 2913 2912 2911 2910
2964 2961 2957 2954 2951 2949 2946 2944 2941 2938 2936 2933 2931 2929 2928 2926 2924 2924 2923 2921 2920 2919 2919 2917 2917 2916 2915 2914 2913 2912 2911 2911 2910 2909 2908 2908 2907 2906 2905 2904 2903 2902 2901 2900
2955 2952 2949 2946 2944 2941 2939 2936 2933 2931 2929 2926 2924 2922 2921 2919 2918 2915 2914 2912 2911 2910 2909 2908 2907 2906 2905 2904 2903 2902 2901 2900 2899 2899 2898 2897 2896 2896 2895 2894 2893 2892 2891 2890
2947 2943 2939 2937 2934 2932 2930 2927 2925 2923 2921 2919 2916 2914 2913 2911 2910 2908 2906 2905 2903 2902 2901 2900 2898 2897 2896 2895 2893 2892 2892 2891 2890 2889 2889 2888 2888 2887 2887 2886 2885 2884 2884 2883
2942 2938 2934 2930 2927 2924 2922 2919 2918 2915 2913 2911 2909 2906 2905 2903 2901 2899 2898 2896 2895 2893 2892 2891 2890 2888 2887 2885 2884 2883 2881 2880 2880 2879 2879 2878 2878 2878 2877 2877 2877 2877 2876 2876
2937 2933 2929 2926 2922 2919 2916 2913 2910 2908 2906 2903 2902 2899 2897 2896 2894 2892 2890 2888 2887 2885 2884 2883 2882 2880 2878 2877 2876 2874 2873 2872 2871 2870 2870 2869 2868 2868 2868 2869 2869 2869 2870 2870